sat.trackr.live / text

‹ back to catalog

ITAMSAT (IO-26)

NORAD 22826 · 1993-061D

PAYLOAD ACTIVE UNKNOWN

§ Identity

Operator
Country
IT
Launch date
1993-09-26
Launch site
FRGUI
Launch vehicle
Mass (kg)
RCS (m²)
0.16

Purposes: comms

External: N2YO · Heavens-Above · Gunter

§ Orbital elements

Epoch: 2026-09-20T02:47:50.879040Z

Period
100.60 min
Inclination
98.6736°
Eccentricity
0.0009321
Mean motion
14.31391062 rev/d
Perigee alt
780.4 km
Apogee alt
793.8 km
Semi-major
7,165.2 km
B*
2.9246e-5
RAAN
330.3794°
Arg perigee
158.3201°
Mean anomaly
201.8378°
Rev number
72,089

§ Raw data

ITAMSAT (IO-26)1 22826U 93061D   26263.11656110  .00000033  00000+0  29246-4 0  99912 22826  98.6736 330.3794 0009321 158.3201 201.8378 14.31391062720890

JSON: /api/v1/satellites/22826 · /tle

For live sub-satellite position, see the globe view (requires WebGL).

§ Visibility from observer

Set your observer location to see the next 7 days of passes ≥ 10°. The values pass through the URL so the page stays shareable.

No JS? Fill the form by hand. The geolocation button needs JavaScript.

§ Radio — SatNOGS DB

ModeDescriptionDownlinkUplink
BPSK BPSK CW carrier 435.772 MHz
BPSK 1k2 BPSK TLM (inactive) 435.860 MHz
BPSK Mode JD (inactive) 437.822 MHz

3 transmitters · refreshed weekly from db.satnogs.org